Regional Weather Roundup
Issued by NWS

Home | Current Version | Previous Version | Text Only | Print | Product List | Glossary On
Versions: 1 2 3 4 5 6 7 8 9 10 11 12 13 14 15 16 17 18 19 20 21 22 23 24 25 26 27 28 29 30 31 32 33 34 35 36 37 38 39 40 41 42 43 44 45 46 47 48 49 50
000
ASUS43 KDTX 262010
RWRMI
MICHIGAN HOURLY REGIONAL WEATHER ROUNDUP
NATIONAL WEATHER SERVICE DETROIT/PONTIAC MI
400 PM EDT TUE SEP 26 2017

NOTE: "FAIR" INDICATES FEW OR NO CLOUDS BELOW 12,000 FEET WITH NO
SIGNIFICANT WEATHER AND/OR OBSTRUCTION TO VISIBILITY.

MIZ047>049-052>055-059>063-066>070-074>076-081>083-262100-
SOUTHEAST LOWER MICHIGAN

CITY           SKY/WX    TMP DP  RH WIND       PRES   REMARKS
ADRIAN         SUNNY     90  58  33 W8G16     29.96F
ALMA           MOSUNNY   91  47  21 SW7       29.92F
ANN ARBOR      MOSUNNY   91  60  35 S13G21    29.94F HX  90
BAD AXE        CLOUDY    87  58  37 W6        29.93F
CARO           MOSUNNY   90  56  31 SW10      29.92F
DETROIT CITY   SUNNY     89  61  38 S9        29.93F
DETROIT        MOSUNNY   93  59  31 W6        29.94F HX  92
FLINT          SUNNY     90  55  30 SW13      29.93F
GROSSE ILE     SUNNY     84  67  55 S8        29.94F
HILLSDALE      CLOUDY    88  59  37 SW7       29.97F
HOWELL         PTSUNNY   92  51  25 SW8       29.95S

CITY           SKY/WX    TMP DP  RH WIND       PRES   REMARKS
JACKSON        PTSUNNY   89  59  36 SW10      29.95F
LAMBERTVILLE   MOSUNNY   91  60  35 W3        29.94F HX  90
LANSING        MOSUNNY   92  54  27 SW7       29.94F HX  90
LAPEER         FAIR      90  58  33 SW10      29.94F
MASON          MOSUNNY   91  57  31 SW8       29.94F
MONROE         MOSUNNY   91  59  34 SW8       29.93F HX  90
MT. CLEMENS    MOSUNNY   88  64  45 S9        29.92F
PONTIAC        MOSUNNY   89  57  33 VRB3      29.94F
PORT HOPE        N/A     75  69  81 SE7       29.93S
PORT HURON     SUNNY     90  59  35 S8        29.94S
TRI CITIES     CLOUDY    91  54  28 SW9       29.92F
MIDLAND        FAIR      91  55  29 SW10      29.91F
TROY           SUNNY     91  56  29 SW9       29.95F
SAGINAW HB     MOSUNNY   91  54  27 SW9       29.92S
$$
MIZ043>046-050>051-056>058-064>065-071>073-077>080-262100-
SOUTHWEST LOWER MICHIGAN

CITY           SKY/WX    TMP DP  RH WIND       PRES   REMARKS
BATTLE CREEK   MOSUNNY   89  60  37 S8        29.96F
BENTON HARBOR  SUNNY     90  61  37 W9        29.93F HX  90
BIG RAPIDS     MOSUNNY   87  56  35 W14       29.92F
COLDWATER      MOSUNNY   89  56  32 SW7       29.96F
FREMONT        FAIR      89  60  37 W13G21    29.92S
HOLLAND        SUNNY     90  59  35 SW14      29.94F
GRAND RAPIDS   MOSUNNY   91  60  35 W13G21    29.93F HX  90
IONIA          PTSUNNY   91  56  30 SW12G21   29.92F
KALAMAZOO      MOSUNNY   88  57  34 SW13      29.95F
LUDINGTON      MOSUNNY   81  62  52 S12       29.90S
MARSHALL       MOSUNNY   88  60  38 SW9       29.95F
MOUNT PLEASANT SUNNY     91  52  25 W6        29.91F
MUSKEGON       PTSUNNY   87  61  41 S16       29.93S
SOUTH HAVEN    SUNNY     89  59  36 W13       29.94S
$$
MIZ016>042-262100-
NORTHERN LOWER MICHIGAN

CITY           SKY/WX    TMP DP  RH WIND       PRES   REMARKS
ALPENA         MOSUNNY   85  68  56 E8        29.90F
BEAVER ISLAND  CLOUDY    71  65  82 SW6       29.89F
BELLAIRE       PTSUNNY   83  60  45 NW5       29.88F
CADILLAC       PTSUNNY   86  55  33 SW12      29.93S
CHARLEVOIX     CLOUDY    76  64  67 W15       29.93F
FRANKFORT      MOSUNNY   76  69  78 SW9G16    29.90F
GAYLORD        MOSUNNY   85  56  37 SW12G20   29.92F
GRAYLING       MOSUNNY   86  55  33 SW9       29.93F
HARBOR SPRINGS CLOUDY    79  61  54 W8        29.90R
HOUGHTON LAKE  MOSUNNY   86  58  38 SW6       29.93F
MANISTEE       PTSUNNY   86  64  47 SW13      29.89F
OSCODA         MOSUNNY   88  59  37 SW13G20   29.90F
PELLSTON       CLOUDY    83  62  49 NW15      29.89S
ROGERS CITY    MOSUNNY   86  56  35 SW6       29.89F
TRAVERSE CITY  CLOUDY    88  59  37 SW9       29.86F
$$
MIZ007>008-015-262100-
EASTERN UPPER MICHIGAN

CITY           SKY/WX    TMP DP  RH WIND       PRES   REMARKS
KINROSS        CLOUDY    80  63  55 W7        29.89S
MACKINAC ISLAN PTSUNNY   77  59  54 W10       29.90R
NEWBERRY       CLOUDY    73  65  76 S5        29.89F
S. S. MARIE    CLOUDY    83  62  49 SW8       29.87F
MUNISING         N/A     75  67  76 S6        29.85F
$$
MIZ004>006-011>014-085-262100-
CENTRAL UPPER MICHIGAN

CITY           SKY/WX    TMP DP  RH WIND       PRES   REMARKS
MANISTIQUE     LGT RAIN  69  63  81 CALM      29.87F
MENOMINEE      CLOUDY    77  66  68 SW9       29.88F
SAWYER-GWINN   CLOUDY    72  64  78 SW7       29.88F
$$
MIZ001>003-009>011-084-262100-
WESTERN UPPER MICHIGAN

CITY           SKY/WX    TMP DP  RH WIND       PRES   REMARKS
IRON MOUNTAIN  PTSUNNY   75  64  68 SW7       29.87S
HOUGHTON       CLOUDY    62  59  90 W6        29.85F
COPPER HARBOR    N/A     59  58  96 CALM      29.84F
IRONWOOD       CLOUDY    63  62  97 W8        29.87S
$$

ABBREVIATIONS USED IN REMARKS
   TC - TEMPERATURE IN CELSIUS
  WCI - WIND CHILL INDEX
   HX - HEAT INDEX
  VSB - VISIBILITY





USA.gov is the U.S. government's official web portal to all federal, state and local government web resources and services.